Regional Weather Roundup
Issued by NWS

Home | Current Version | Previous Version | Text Only | Print | Product List | Glossary Off
Versions: 1 2 3 4 5 6 7 8 9 10 11 12 13 14 15 16 17 18 19 20 21 22 23 24 25 26 27 28 29 30 31 32 33 34 35 36 37 38 39 40 41 42 43 44 45 46 47 48 49 50

000
ASUS43 KTOP 301359
RWRKS

WEATHER ROUNDUP FOR KANSAS
NATIONAL WEATHER SERVICE GOODLAND KS
900 AM CDT THU JUL 30 2015

NOTE:  "FAIR" INDICATES FEW OR NO CLOUDS BELOW 12,000 FEET WITH NO
SIGNIFICANT WEATHER AND/OR OBSTRUCTIONS TO VISIBILITY.

KSZ001>006-013>018-027>032-041>047-301500-
NORTHWEST KANSAS

CITY           SKY/WX    TMP DP  RH WIND       PRES   REMARKS
GOODLAND       SUNNY     69  64  84 S9        30.30R
HAYS           CLOUDY    72  59  64 E8        30.27R
HILL CITY      PTSUNNY   71  63  75 CALM      30.28R
RUSSELL        PTSUNNY   73  65  75 E7        30.25R
$$

KSZ061>065-074>080-084>089-301500-
SOUTHWEST KANSAS

CITY           SKY/WX    TMP DP  RH WIND       PRES   REMARKS
DODGE CITY     MOSUNNY   70  67  90 E7        30.27R
ELKHART          N/A     69  65  87 W2          N/A
GARDEN CITY    MOSUNNY   71  67  87 CALM      30.28R FOG
GREAT BEND     CLOUDY    70  64  83 E8        30.26R
LIBERAL        CLOUDY    72  64  78 N6        30.27R
$$

KSZ066>073-081>083-090>101-301500-
SOUTHEAST KANSAS

CITY           SKY/WX    TMP DP  RH WIND       PRES   REMARKS
CHANUTE        PTSUNNY   77  65  66 E8        30.20R
COFFEYVILLE    MOSUNNY   80  66  62 E10       30.17R
HUTCHINSON     RAIN      70  67  90 SE7       30.24R FOG
MEDICINE LODGE   N/A     70  69  97 E9        30.23R
PARSONS        PTSUNNY   78  67  68 VRB5      30.19R
WICHITA INTL   TSTM      70  68  93 W6        30.25R FOG
WICHITA JABRA  RAIN      68  68 100 NE6       30.25R
WICHITA MCCONL LGT RAIN  70  68  94 NE9       30.24R FOG
WINFIELD       TSTM      70  69  97 N18G25    30.22R
$$

KSZ007>012-019>026-033>040-048>060-102>105-301500-
NORTHEAST KANSAS

CITY           SKY/WX    TMP DP  RH WIND       PRES   REMARKS
CONCORDIA      SUNNY     73  65  75 SE3       30.25R
EMPORIA        CLOUDY    71  66  84 CALM      30.23R
LAWRENCE       SUNNY     73  67  81 CALM      30.22R
MANHATTAN      PTSUNNY   72  65  78 CALM      30.23R
OLATHE IND     SUNNY     76  66  71 E5        30.23R
OLATHE EXE     SUNNY     76  64  66 SE5       30.22R
SALINA         PTSUNNY   73  66  78 CALM      30.25R
TOPEKA BILLARD MOSUNNY   73  68  84 CALM      30.23R
TOPEKA FORBES  MOSUNNY   75  66  73 CALM      30.22R
$$


USA.gov is the U.S. government's official web portal to all federal, state and local government web resources and services.